Regional Weather Roundup
Issued by NWS Wakefield, VA

Home | Current Version | Previous Version | Text Only | Print | Product List | Glossary Off
Versions: 1 2 3 4 5 6 7 8 9 10 11 12 13 14 15 16 17 18 19 20 21 22 23 24 25 26 27
000 ASUS41 KAKQ 312210 RWRAKQ REGIONAL WEATHER ROUNDUP NATIONAL WEATHER SERVICE WAKEFIELD VA 600 PM EDT FRI OCT 31 2014 Note: "fair" indicates few or no clouds below 12,000 feet with no significant weather and/or obstructions to visibility. * = Denotes station may not report precipitation (e.g., rain,snow,etc.), thunder or fog. VAZ042-051-052>054-056-312300- NORTHERN VIRGINIA CITY SKY/WX TMP DP RH WIND PRES REMARKS WASH NATIONAL MOCLDY 56 33 42 NE8 29.87S DULLES MOCLDY 51 35 54 NE5 29.86F FORT BELVOIR MOCLDY 51 37 57 CALM 29.87S QUANTICO CLOUDY 55 36 48 E8 29.87S FREDERICKSBRG* PTCLDY 54 38 55 NE3 29.85S STAFFORD* MOCLDY 52 34 50 CALM 29.90R WARRENTON CLOUDY 53 43 68 E3 29.85S CULPEPER* CLOUDY 54 36 50 CALM 29.86S MANASSAS* CLOUDY 54 36 50 CALM 29.86S LEESBURG* CLOUDY 52 37 58 E6 29.87S WINCHESTER CLOUDY 52 32 46 CALM 29.85S FRONT ROYAL* CLOUDY 50 36 57 CALM 29.83F LURAY* CLOUDY 52 39 62 CALM 29.84S $$ VAZ048-049-060>072-079>083-312300- CENTRAL AND SOUTH CENTRAL VIRGINIA...AND NORTH CENTRAL NORTH CAROLINA CITY SKY/WX TMP DP RH WIND PRES REMARKS RICHMOND MOCLDY 55 37 50 NE5 29.83F CHESTERFIELD* CLOUDY 55 32 41 NE5 29.84F PETERSBURG* CLOUDY 55 37 50 N5 29.83F HANOVER MOCLDY 54 38 54 CALM 29.85F TAPPAHANNOCK* MOCLDY 54 32 43 NE5 29.85F CHARLOTTSVILLE CLOUDY 53 37 54 NE6 29.84S ORANGE* CLOUDY 54 37 54 CALM 29.86S LOUISA* CLOUDY 52 43 71 CALM 29.83S FARMVILLE* PTCLDY 52 39 62 CALM 29.81F CREWE* CLOUDY 54 40 58 CALM 29.82F FORT PICKETT* CLOUDY 53 43 70 N3 29.82F LUNENBURG* CLOUDY 55 42 60 CALM 29.82S SOUTH HILL* CLOUDY 55 46 71 CALM 29.87F LAWRENCEVILLE* CLOUDY 53 45 73 CALM 29.82S ROANOKE RAPIDS CLOUDY 54 43 66 CALM 29.82S RALEIGH MOCLDY 55 43 63 NE6 29.82F $$ VAZ088>098-312300- SOUTHEAST VIRGINIA CITY SKY/WX TMP DP RH WIND PRES REMARKS NORFOLK MOCLDY 56 39 53 N12 29.81F VIRGINIA BEACH MOCLDY 57 40 52 N10 29.80F NORFOLK NAVAL MOCLDY 57 40 52 N15 29.83S WEST POINT* MOCLDY 56 38 52 N3 29.85F NEWPORT NEWS PTCLDY 55 40 56 NE6 29.83S LANGLEY AFB PTCLDY 54 40 59 N6 29.82F FORT EUSTIS PTCLDY 55 39 56 NE5 29.81S WILLIAMSBURG* PTCLDY 55 43 62 N5 29.84S HR EXEC AP* PTCLDY 54 39 58 N6 29.84S FRANKLIN* CLOUDY 54 41 62 N5 29.82S WAKEFIELD PTCLDY 54 40 59 CALM 29.83S $$ VAZ020-022-025-037-045-312300- WEST CENTRAL AND SOUTHWEST VIRGINIA CITY SKY/WX TMP DP RH WIND PRES REMARKS STAUNTON* CLOUDY 50 36 59 CALM 29.84S HOT SPRINGS VA DRIZZLE 37 35 91 W3 29.78S LYNCHBURG MOCLDY 51 38 60 SE3 29.83F DANVILLE PTCLDY 53 45 74 CALM 29.82F SOUTH BOSTON* NOT AVBL MARTINSVILLE CLOUDY 52 43 72 CALM 29.84F ROANOKE CLOUDY 52 37 56 E5 29.83S BLACKSBURG RAIN 45 45 100 CALM 29.84S DUBLIN* RAIN 45 44 95 W5 29.84S MARION* LGT RAIN 41 38 89 W13 29.85S HILLSVILLE* RAIN 41 40 95 W7 29.82S RICHLANDS* DRIZZLE 42 40 93 NW6 29.84R WISE* DRIZZLE 41 41 100 W3 29.84F ABINGDON* DRIZZLE 43 41 93 W5 29.85S $$ MDZ021>025-VAZ099-100-312300- SOUTHERN MARYLAND AND THE DELMARVA PENINSULA CITY SKY/WX TMP DP RH WIND PRES REMARKS PATUXENT RIVER PTCLDY 52 35 52 N9 29.85F BAY BRIDGE APT N/A 52 32 46 N3 29.87S LEONARDTOWN CLEAR 48 34 57 CALM 29.88S DOVER CLOUDY 51 40 65 N9 29.84F GEORGETOWN CLOUDY 52 40 63 N7 29.85F EASTON PTCLDY 52 39 62 NE7 29.89S CAMBRIDGE CLEAR 54 36 50 N5 29.85F SALISBURY MOCLDY 53 42 66 N7 29.84F OCEAN CITY CLOUDY 52 42 69 N7 29.83F WALLOPS ISLAND MOCLDY 52 39 61 VRB6 29.83F ACCOMACK* PTCLDY 52 36 54 N5 29.82F $$ NCZ012>017-030>032-312300- EASTERN NORTH CAROLINA CITY SKY/WX TMP DP RH WIND PRES REMARKS ELIZABETH CITY CLOUDY 59 45 59 N13 29.80R AHOSKIE* NOT AVBL EDENTON* CLOUDY 57 47 68 N6 29.80S CURRITUCK* CLOUDY 56 43 61 N10G17 29.80S HAZE KILL DEVIL HLS CLOUDY 60 50 71 N7 29.76R MANTEO CLOUDY 59 51 73 N12G20 29.77R CAPE HATTERAS MOCLDY 60 51 72 N12G18 29.75R TARBORO* CLOUDY 58 43 58 CALM 29.82F GOLDSBORO PTCLDY 60 46 60 N7 29.78F WASHINGTON CLEAR 57 43 59 N5 29.80S GREENVILLE PTCLDY 57 43 58 N6 29.83S NEW BERN PTCLDY 62 43 49 N8 29.79S WILMINGTON CLEAR 62 44 51 N7 29.78R $$ VAZ048-312300- ELSEWHERE CITY SKY/WX TMP DP RH WIND PRES REMARKS HARRISBURG PA CLOUDY 52 32 46 CALM 29.87S BALTIMORE MOCLDY 52 36 54 SE3 29.87R ANNAPOLIS PTCLDY 54 37 52 N3 29.87S ANDREWS AFB CLOUDY 52 34 51 E6 29.86S WILMINGTON DE PTCLDY 49 37 63 NE8 29.89S PHILADELPHIA CLOUDY 51 36 56 NE8 29.89F WILDWOOD NJ* CLOUDY 52 39 62 N6 29.86S ATLANTIC CITY CLOUDY 51 42 71 N9 29.85S HENDERSON NC CLOUDY 53 43 67 CALM 29.82F GREENSBORO CLOUDY 55 42 61 CALM 29.81S ROCKY MOUNT PTCLDY 57 43 59 N6 29.81F FAYETTEVILLE PTCLDY 60 44 55 NE6 29.80R CHARLOTTE MOCLDY 59 43 55 CALM 29.80F $$ VAZ100-312300- MARINE STATION/POSITION TIME TEMP WIND PRES WAVE SWELL AIR SEA DIR/SP/G HT/PER HT/PER (UTC) (F) (DEG/KT/KT) (MB) (FT/S) (FT/S) 44066 TX TWR #4 2200 60 64 50/ 19/ 23 1008.8F 4/ 5 CAPE MAY NJ 2200 53 64 360/ 4/ 7 1010.2F LEWES DE 2200 54 59 10/ 10/ 12 1010.5F 15NM E FENWICK I 2200 57 63 1009.3F 2/ 4 OCEAN-CITY-INLET 2200 54 61 360/ 10/ 12 1009.9S WACHAPREAGUE VA 2200 53 60 20/ 4/ 7 1009.7S THOMAS POINT MD 2200 53 61 350/ 8/ 9 1012.4S GOOSES REEF MD 2200 54 10/ 8/ 12 1011.6F COVE POINT MD 2200 53 10/ 7/ 10 1010.9F SOLOMONS ISLAND 2200 62 N/A BISHOPS HEAD MD 2200 55 60 340/ 6/ 8 1009.9F PINEY POINT MD 2200 10/ 9/ 10 N/A POTOMAC MD 2200 55 360/ 10/ 14 1010.1F CAMBRIDGE MD 2200 55 59 20/ 7/ 9 1010.5F LEWISETTA VA 2200 54 61 350/ 5/ 8 1010.3S RAPPAHANNOCK LGT 2200 360/ 15/ 17 1010.1F STINGRAY PT 2200 56 10/ 14/ 16 1010.6F YORK RVR RNG VA 2200 55 30/ 15/ 18 1009.1F YORKTOWN VA 2200 56 63 30/ 8/ 9 1009.5S JAMESTOWN VA 2200 55 10/ 6/ 10 N/A DOMINION TERM VA 2200 56 20/ 7/ 10 1009.7F KIPTOPEKE VA 2200 66 40/ 5/ 8 N/A CHES BAY BRIDGE 2200 56 64 360/ 15/ 19 1009.0R CHESAPEAKE LGHT 2100 56 10/ 21/ 23 1009.3R WILLOUBY STN VA 2200 55 20/ 10/ 12 1008.3F S CRANEY ISL VA 2200 350/ 14/ 17 1009.2F CAPE HENRY BUOY 2200 65 N/A 4/ 6 1ST LANDING BUOY 2200 57 10/ 16/ 19 1009.2S CAPE CHARLES BUO 2200 65 N/A 4/ 5 2/ 8 64NM E OF VA BCH 2200 60 66 360/ 23/ 27 1006.7F 6/ 6 DUCK PIER NC 2200 59 65 10/ 20/ 24 1006.8F 44100 DUCK FRF 2200 67 N/A 5/ 6 OREGON INLET NC 2200 60 64 360/ 12/ 18 1007.3S HATTERAS NC 2200 61 65 10/ 18/ 21 1007.7R DIAMOND SHLS NC 2200 65 360/ 21/ 27 1006.4F 6/ 6 CAPE LOOKOUT NC 2100 62 10/ 12/ 14 1007.4F $$

USA.gov is the U.S. government's official web portal to all federal, state and local government web resources and services.